Preview of NWS' New Version of Forecast
This preview is not operational and should not be used for support decisions.

Regional Weather Roundup (RWR)

Issued by National Weather Service (NWS)

                            
000
ASPQ40 PGUM 180910
RWRPQ 
WEATHER ROUNDUP FOR THE MARIANAS AND MICRONESIA
NATIONAL WEATHER SERVICE TIYAN GU
700 PM CHST MON FEB 18 2019

GUZ001>004-181000-
MARIANA ISLANDS-
  
CITY           SKY/WX    TMP DP  RH WIND       PRES   REMARKS
GUAM AIRPORT   LGT RAIN  75  75 100 NE18G28   30.01R                  
ANDERSEN AFB   MOCLDY    75  72  88 NE18      30.01R                  
ROTA AIRPORT   LGT RAIN  75  73  94 NE17      30.00R                  
TINIAN AP      LGT RAIN N/A N/A N/A E20       30.01R                  
SAIPAN AP      LGT RAIN  77  72  83 NE22G29   30.02R                  

$$

PMZ161-181000-
REPUBLIC OF PALAU-
  
CITY           SKY/WX    TMP DP  RH WIND       PRES   REMARKS
KOROR AP       PTCLDY    81  70  69 NE12G20   29.91R                  
KOROR WSO      NOT AVBL                                               

$$

PMZ171>174-181000-
FEDERATED STATES OF MICRONESIA-
  
CITY           SKY/WX    TMP DP  RH WIND       PRES   REMARKS
YAP AIRPORT    MOCLDY    82  72  69 NE9       29.92R                  
CHUUK AP       MOCLDY    82  79  89 NE10      29.84R HX  93           
POHNPEI AP     NOT AVBL                                               
POHNPEI WSO    NOT AVBL                                               
KOSRAE AP      NOT AVBL                                               

$$

PMZ181-181000-
REPUBLIC OF THE MARSHALL ISLANDS-
  
CITY           SKY/WX    TMP DP  RH WIND       PRES   REMARKS
KWAJALEIN AP   CLOUDY    81  79  94 E22       29.84R                  
MAJURO AP      MOCLDY    82  77  83 E25       29.82R HX  91           
MAJURO WSO     MOCLDY    82  77  83 E20       29.81S HX  91           

$$